ESEO
1 43792U 18099AL  24266.86475757  .00003030  00000-0  24512-3 0  9994
2 43792  97.5018 318.1298 0006889 344.8832  15.2185 15.00474401316842
CSIM
1 43793U 18099AM  24266.15399451  .00032988  00000-0  14283-2 0  9990
2 43793  97.5201 330.3865 0009438 334.5431  25.5338 15.22302350317490
JO-97
1 43803U 18099AX  24266.13379364  .00013209  00000-0  80585-3 0  9995
2 43803  97.5085 322.7743 0008084 336.7063  23.3800 15.10430242317313
Suomi 100
1 43804U 18099AY  24266.57395553  .00012027  00000-0  75464-3 0  9999
2 43804  97.5166 322.9647 0013834 331.8282  28.2197 15.09374115317358
ISAT
1 43879U 18111D   24266.28712212  .00019441  00000-0  10578-2 0  9990
2 43879  97.6068 171.6983 0013906  37.5791 322.6409 15.14411485314092
UWE-4
1 43880U 18111E   24266.47848265  .00016392  00000-0  92742-3 0  9997
2 43880  97.5996 171.6419 0017580  42.6721 317.5871 15.13003491314122
Sparrow
1 43881U 18111F   24266.48705725  .00018765  00000-0  10045-2 0  9993
2 43881  97.6172 173.9991 0012556  71.4742 288.7853 15.15015324314197
Prox-1
1 44339U 19036A   24266.84297678  .00015855  00000-0  25445-2 0  9999
2 44339  24.0001 315.7913 0007701  18.4235 341.6538 14.70025101279705
SONATE
1 44400U 19038Q   24266.72867453  .00034648  00000-0  84101-3 0  9997
2 44400  97.7168 265.6280 0017459 114.3929 245.9141 15.40794782289064
Taurus 1
1 44530U 19059C   24266.79528327  .00011112  00000-0  24292-2 0  9990
2 44530  98.5841  29.7444 0010872 120.4783 239.7490 14.57900901265975
Duchifat 3
1 44854U 19089C   24266.82966761  .00025581  00000-0  11089-2 0  9999
2 44854  36.9535 174.1888 0008328 229.2963 130.7062 15.21555427263051
TO-108
1 44881U 19093C   24266.81155289  .00002088  00000-0  25511-3 0  9991
2 44881  97.8211 341.7054 0014285   8.9692 351.1775 14.84262300257523
FloripaSat 1
1 44885U 19093G   24266.78710824  .00008979  00000-0  88343-3 0  9990
2 44885  97.8354 348.7136 0011457 357.2443   2.8710 14.92279765257919
RS-44
1 44909U 19096E   24266.60352597  .00000027  00000-0  60613-4 0  9997
2 44909  82.5230  40.0255 0217548 183.1882 176.7847 12.79734014221432
UPMSat 2
1 46276U 20061E   24266.15154810  .00028226  00000-0  72385-3 0  9997
2 46276  97.2859 331.5320 0002396 132.9387 227.2060 15.39312431225063
AmicalSat
1 46287U 20061R   24266.44494410  .00076333  00000-0  13950-2 0  9998
2 46287  97.3353 334.3658 0002853 206.5989 153.5116 15.49116895224557
SALSAT
1 46495U 20068K   24266.42157049  .00011090  00000-0  58884-3 0  9993
2 46495  97.8276 228.3493 0012584 352.6953   7.4093 15.15440393219025
UVSQ-SAT
1 47438U 21006AB  24266.15577356  .00214937  00000-0  15968-2 0  9991
2 47438  97.3070 329.1605 0006692 212.8777 147.2071 15.72179222203822
SOMP 2b
1 47445U 21006AJ  24266.59202463  .00133575  00000-0  14482-2 0  9999
2 47445  97.3041 327.1264 0006500 214.3612 145.7227 15.63073961203762
IDEASSat
1 47458U 21006AX  24266.62214676  .00091955  00000-0  12731-2 0  9996
2 47458  97.3164 327.2551 0006132 213.1481 146.9390 15.56770275203661
CubeSX-Sirius-HSE
1 47951U 21022V   24266.84999109  .00033419  00000-0  10639-2 0  9993
2 47951  97.4445 165.2967 0014443 139.3186 220.9137 15.32401507193492
CubeSX-HSE
1 47952U 21022W   24266.85946761  .00034008  00000-0  10754-2 0  9994
2 47952  97.4445 165.4207 0014447 138.3636 221.8709 15.32612221193509
KSU-Cubesat
1 47954U 21022Y   24266.68031707  .00045259  00000-0  12286-2 0  9994
2 47954  97.4449 167.1154 0013691 130.9392 229.3040 15.37365747193315
GRBAlpha
1 47959U 21022AD  24266.81851001  .00035463  00000-0  11192-2 0  9992
2 47959  97.4445 165.5436 0014276 138.7476 221.4848 15.32668687192323
Orbicraft-Zorkiy
1 47960U 21022AE  24266.85413700  .00042683  00000-0  12187-2 0  9995
2 47960  97.4488 167.2756 0013715 133.4050 226.8338 15.35804367193103
TUBIN
1 48900U 21059X   24266.87644048  .00027596  00000-0  80234-3 0  9998
2 48900  97.6585  54.7586 0006257 105.4893 254.7041 15.35406731179889
LEDSAT
1 49069U 21073D   24266.16250475  .00027439  00000-0  93266-3 0  9995
2 49069  97.4270 336.9238 0016033 299.6710  60.2934 15.30308457171256
CUTE
1 49263U 21088D   24266.15784202  .00030727  00000-0  12016-2 0  9993
2 49263  97.4858 331.8129 0013861 105.6982 254.5787 15.25703194164392
TeikyoSat 4
1 49396U 21102B   24266.53161961  .00003947  00000-0  28007-3 0  9992
2 49396  97.4505 308.1459 0011838 307.5795  52.4356 15.05250167157392
Z-Sat
1 49399U 21102E   24266.87559178  .00007143  00000-0  44203-3 0  9991
2 49399  97.4210 310.3013 0018135 282.4812  77.4388 15.09970746157722
KOSEN 1
1 49402U 21102H   24266.70211917  .00008312  00000-0  46438-3 0  9995
2 49402  97.4129 311.9595 0016437 262.6772  97.2592 15.13642720157883
HO-113
1 50466U 21131B   24266.83499822  .00001295  00000-0  42527-3 0  9994
2 50466  98.5246 351.4496 0004231 180.7337 179.3845 14.39977403144056
IRIS-A
1 51044U 22002BN  24266.42268183  .00034943  00000-0  92650-3 0  9992
2 51044  97.3731 332.9284 0005263  61.7175 298.4600 15.38232700149330
OreSat0
1 52017U 22026K   24266.62804457  .00947241  44306-3  17958-2 0  9992
2 52017  97.4724 287.3722 0009149 193.8153 166.2877 16.00744684140972
Planetum 1
1 52738U 22057G   24266.31028649  .00113466  00000-0  15167-2 0  9997
2 52738  97.5731  36.9408 0004526 201.7400 158.3664 15.57648120129598
Foresail-1
1 52766U 22057AL  24266.40276228  .00037292  00000-0  97439-3 0  9991
2 52766  97.5924  34.6617 0008639 150.0039 210.1702 15.38648895129366
SNUGLITE 2
1 52899U 22065F   24266.64223672  .00002782  00000-0  57033-3 0  9990
2 52899  98.1340  46.0118 0007413 201.9030 158.1855 14.61478125118495
IO-117
1 53106U 22080B   24262.04253631 -.00000003  00000-0  00000-0 0  9991
2 53106  70.1426 160.2682 0008012  86.6369 273.5207  6.42557475 51233
FO-118
1 54684U 22167C   24266.84506961  .00060604  00000-0  15183-2 0  9990
2 54684  97.6154  54.6367 0008461 170.5298 189.6108 15.39820179 99278
SSS-2B
1 56184U 23054G   24266.87221226  .00084440  00000-0  12848-2 0  9993
2 56184  97.3502 166.3715 0007786 136.0716 224.1158 15.54207040 81238
CIRBE
1 56188U 23054L   24266.78937699  .00696654  20106-3  20262-2 0  9992
2 56188  97.3345 170.9154 0010684 137.6243 222.5859 15.92805425 81556
SO-120
1 56992U 23084BU  24266.61468548  .00062686  00000-0  16275-2 0  9991
2 56992  97.5377  27.6885 0007952  32.9617 327.2123 15.38720903 71105
MRC-100
1 56993U 23084BV  24266.59409155  .00080417  00000-0  17977-2 0  9990
2 56993  97.5368  28.5082 0006568  21.6508 338.5016 15.43188239 71169
UmKA 1 (RS40S)
1 57172U 23091G   24266.84789211  .00008081  00000-0  50659-3 0  9992
2 57172  97.6003 317.9676 0017331 144.8833 215.3542 15.09478699 68211
CubeBel-2 (EU11S)
1 57175U 23091K   24266.86930742  .00011337  00000-0  68388-3 0  9990
2 57175  97.6010 318.0808 0015588 154.7258 205.4737 15.10805610 68220
VERONIKA
1 58261U 23174F   24266.78010969  .00031000  00000-0  11542-2 0  9998
2 58261  97.4506 340.9898 0010588 254.0181 105.9892 15.27369872 48577
KAFASAT
1 58317U 23174BP  24266.86335677  .00042859  00000-0  13522-2 0  9999
2 58317  97.4446 342.1737 0010080 228.0676 131.9708 15.32686947 48672
ENSO
1 58470U 23185J   24266.87128567  .00027174  00000-0  97667-3 0  9996
2 58470  97.4151 332.8287 0010041 292.0014  68.0158 15.28563924 45035
EIRSAT-1
1 58472U 23185L   24266.85650286  .00031245  00000-0  10790-2 0  9999
2 58472  97.4143 332.9721 0009542 291.5991  68.4232 15.29846076 45045
SO-121
1 58567U 23174CY  24266.53781688  .00161526  00000-0  27157-2 0  9999
2 58567  97.4395 343.6651 0011650 237.1375 122.8756 15.51098819 48740
SONATE-2
1 59112U 24043Q   24266.59284392  .00016306  00000-0  71081-3 0  9999
2 59112  97.4891  29.6491 0013301 314.9688  45.0469 15.22182518 30608
MESAT1
1 60209U 24125G   24266.83466372  .00016154  00000-0  69943-3 0  9991
2 60209  97.3112 117.3652 0024641 345.7410  14.3128 15.22211678 12252
GRBBeta
1 60237U 24128C   24266.72333382  .00006820  00000-0  58860-3 0  9992
2 60237  61.9929 262.6734 0018314 341.1028  18.9378 14.98016594 11209
Curium One
1 60242U 24128H   24266.42602774  .00010518  00000-0  90648-3 0  9998
2 60242  61.9838 263.9084 0019234 327.3065  32.6831 14.97642186 11168
ROBUSTA-3A
1 60243U 24128J   24266.43616688  .00010506  00000-0  91154-3 0  9999
2 60243  61.9904 264.0186 0017491 322.6379  37.3492 14.97405236 11165
CatSat
1 60246U 24125J   24266.14850358  .00013120  00000-0  57226-3 0  9998
2 60246  97.2936 117.8456 0049612 297.3887  62.2306 15.21153493 10266
SR-0 DemoSAT
1 60455U 24147B   24266.82614644  .00185889  00000-0  35509-2 0  9996
2 60455  37.3780  63.8854 0022210 325.5083  34.4240 15.46303024  5793
Binar 4
1 60952U 98067WS  24266.82574877  .00178678  00000-0  23012-2 0  9997
2 60952  51.6345 190.9587 0007253  40.7832 319.3702 15.57884566  3809
CosmoGirlSat
1 60953U 98067WT  24266.26205805  .00107428  00000-0  15317-2 0  9992
2 60953  51.6367 193.9434 0010151  31.2558 328.9035 15.55407306  3715
Sakura
1 60954U 98067WU  24266.83505165  .00119537  00000-0  16522-2 0  9991
2 60954  51.6359 191.0210 0009753  35.4584 324.7054 15.56200076  3800
Binar 2
1 60956U 98067WW  24266.82713486  .00142731  00000-0  18906-2 0  9999
2 60956  51.6314 190.9638 0007932  40.5623 319.5959 15.57266495  3795
